Simultaneous Nadir Overpasses (SNOs) Predictions

Prediction of SNOs between GOES-15 and NOAA-20 Satellite Orbit:

Table of predicted SNOs for the next 14.0 days since TLE Epoch: 10/1/2022
Index Date Time (GOES-15) GOES-15 Lat,Lon NOAA-20 Lat,Lon Distance(km) Time Diff (sec)
1 10/01/2022 09:46:29 0.30,-128.17 -0.23,-125.78 272.27 80
2 10/02/2022 22:08:26 -0.28,-128.13 -0.93,-131.09 337.84 80
3 10/03/2022 21:52:22 -0.28,-128.15 0.08,-126.56 180.64 80
4 10/05/2022 10:11:30 0.26,-128.25 1.06,-131.84 409.41 80
5 10/06/2022 09:55:26 0.26,-128.26 0.05,-127.31 108.69 80
6 10/08/2022 21:58:38 -0.25,-128.23 -0.24,-128.08 16.35 80
7 10/11/2022 09:59:01 0.24,-128.35 0.36,-128.83 55.08 80
8 10/12/2022 09:42:57 0.25,-128.36 -0.66,-124.30 462.85 80
9 10/13/2022 22:02:13 -0.23,-128.30 -0.54,-129.61 149.31 80
10 10/14/2022 21:46:09 -0.24,-128.31 0.48,-125.08 368.54 80
